| time (UTC) | temp F | wind direction | speed knots | gust knots | rain 1hr in | rain 24hr in | rain mn in | humidity % | barometer mb |
| 20260506110628 | 75 | 202 | 0.9 | 1.7 | 0.00 | 0.00 | 0.00 | 90 | 1006.8 |
| 20260506105726 | 75 | 202 | 2.6 | 3.5 | 0.00 | 0.00 | 0.00 | 90 | 1006.7 |
| 20260506104726 | 75 | 196 | 2.6 | 5.2 | 0.00 | 0.00 | 0.00 | 90 | 1006.7 |
| 20260506103728 | 75 | 225 | 0.9 | 1.7 | 0.00 | 0.00 | 0.00 | 89 | 1006.8 |
| 20260506102727 | 76 | 202 | 0.9 | 2.6 | 0.00 | 0.00 | 0.00 | 89 | 1006.7 |
| 20260506101729 | 76 | 181 | 1.7 | 3.5 | 0.00 | 0.00 | 0.00 | 89 | 1006.6 |
| 20260506100727 | 76 | 220 | 2.6 | 3.5 | 0.00 | 0.00 | 0.00 | 88 | 1006.6 |
| 20260506095729 | 76 | 225 | 1.7 | 3.5 | 0.00 | 0.00 | 0.00 | 88 | 1006.5 |
| 20260506094826 | 76 | 206 | 2.6 | 6.1 | 0.00 | 0.00 | 0.00 | 88 | 1006.3 |
| 20260506093828 | 76 | 225 | 0.9 | 2.6 | 0.00 | 0.00 | 0.00 | 88 | 1006.2 |
| 20260506092927 | 76 | 202 | 1.7 | 3.5 | 0.00 | 0.00 | 0.00 | 88 | 1006.3 |
| 20260506092828 | 76 | 202 | 3.5 | 4.3 | 0.00 | 0.00 | 0.00 | 88 | 1006.3 |
| 20260506091927 | 76 | 225 | 3.5 | 5.2 | 0.00 | 0.00 | 0.00 | 88 | 1006.3 |
| 20260506090927 | 76 | 225 | 2.6 | 3.5 | 0.00 | 0.00 | 0.00 | 88 | 1006.3 |
| 20260506085926 | 77 | 225 | 2.6 | 4.3 | 0.00 | 0.00 | 0.00 | 88 | 1006.2 |
| 20260506084942 | 77 | 211 | 2.6 | 4.3 | 0.00 | 0.00 | 0.00 | 87 | 1006.3 |
| 20260506083943 | 77 | 190 | 5.2 | 7.8 | 0.00 | 0.00 | 0.00 | 87 | 1006.1 |
| 20260506083028 | 77 | 202 | 3.5 | 5.2 | 0.00 | 0.00 | 0.00 | 87 | 1006.3 |
| 20260506082027 | 77 | 225 | 2.6 | 4.3 | 0.00 | 0.00 | 0.00 | 87 | 1006.3 |
| 20260506081928 | 77 | 219 | 3.5 | 5.2 | 0.00 | 0.00 | 0.00 | 87 | 1006.3 |
| 20260506080929 | 77 | 225 | 2.6 | 4.3 | 0.00 | 0.00 | 0.00 | 86 | 1006.6 |
| 20260505233605 | 82 | 219 | 7.0 | 9.6 | 0.00 | 0.00 | 0.00 | 73 | 1004.5 |
| 20260505232605 | 82 | 228 | 4.3 | 11.3 | 0.00 | 0.00 | 0.00 | 73 | 1004.5 |
| 20260505231702 | 82 | 228 | 4.3 | 8.7 | 0.00 | 0.00 | 0.00 | 72 | 1004.5 |
| 20260505231603 | 82 | 212 | 5.2 | 7.8 | 0.00 | 0.00 | 0.00 | 72 | 1004.6 |
| 20260505230603 | 82 | 204 | 6.1 | 11.3 | 0.00 | 0.00 | 0.00 | 71 | 1004.5 |
| 20260505225603 | 83 | 217 | 8.7 | 13.0 | 0.00 | 0.00 | 0.00 | 71 | 1004.5 |
| 20260505224604 | 83 | 243 | 4.3 | 8.7 | 0.00 | 0.00 | 0.00 | 70 | 1004.3 |
| 20260505223604 | 83 | 225 | 7.8 | 9.6 | 0.00 | 0.00 | 0.00 | 70 | 1004.2 |
| 20260505222603 | 83 | 229 | 4.3 | 7.0 | 0.00 | 0.00 | 0.00 | 69 | 1004.4 |
| 20260505222504 | 83 | 232 | 4.3 | 7.8 | 0.00 | 0.00 | 0.00 | 69 | 1004.5 |
| 20260505221504 | 83 | 225 | 3.5 | 6.1 | 0.00 | 0.00 | 0.00 | 71 | 1004.4 |
| 20260505221405 | 83 | 237 | 4.3 | 9.6 | 0.00 | 0.00 | 0.00 | 71 | 1004.3 |
| 20260505220403 | 83 | 229 | 7.8 | 11.3 | 0.00 | 0.00 | 0.00 | 71 | 1004.5 |
| 20260505215404 | 83 | 223 | 5.2 | 8.7 | 0.00 | 0.00 | 0.00 | 71 | 1004.8 |
| 20260505123912 | 73 | 219 | 2.6 | 6.1 | 0.00 | 0.00 | 0.00 | 85 | 1006.7 |
| 20260505123813 | 73 | 224 | 2.6 | 5.2 | 0.00 | 0.00 | 0.00 | 85 | 1006.8 |
| 20260505122812 | 73 | 228 | 3.5 | 5.2 | 0.00 | 0.00 | 0.00 | 85 | 1006.8 |
| 20260505121812 | 73 | 224 | 3.5 | 6.1 | 0.00 | 0.00 | 0.00 | 86 | 1006.7 |
| 20260505121731 | 73 | 223 | 6.1 | 7.0 | 0.00 | 0.00 | 0.00 | 86 | 1006.8 |
| 20260505120815 | 73 | 236 | 1.7 | 3.5 | 0.00 | 0.00 | 0.00 | 86 | 1006.6 |
| 20260505115813 | 73 | 225 | 3.5 | 8.7 | 0.00 | 0.00 | 0.00 | 86 | 1006.4 |
| 20260505114815 | 73 | 229 | 3.5 | 6.1 | 0.00 | 0.00 | 0.00 | 86 | 1006.3 |
| 20260505114713 | 73 | 228 | 2.6 | 5.2 | 0.00 | 0.00 | 0.00 | 86 | 1006.4 |
| 20260505113714 | 73 | 224 | 4.3 | 7.0 | 0.00 | 0.00 | 0.00 | 86 | 1006.6 |
| 20260505112714 | 72 | 225 | 3.5 | 7.8 | 0.00 | 0.00 | 0.00 | 86 | 1006.6 |